This demonstration page uses our WeatherBlox Daily Observations layout. Learn more.

Left ArrowRight Arrow

Hourly Observations for March 10, 2015

Temp ( °F °C ) Dew Point ( °F °C ) Humidity (%) Winds ( mph kmh ) Pressure ( in mb ) Visibility ( mi km ) Precip ( " mm )
6:30 am 06:30 Cloudy with Light Rain 36 2 34 1 93 93 N N/A 30.09 1019 3 4 N/A
6:50 am 06:50 Cloudy with Light Rain 36 2 34 1 93 93 N N/A 30.09 1019 3 4 N/A
7:15 am 07:15 Cloudy with Light Rain 36 2 34 1 93 93 N N/A 30.09 1019 1 2 N/A
7:45 am 07:45 Cloudy with Light Rain 36 2 36 2 100 100 N N/A 30.09 1019 1 1 N/A
8:35 am 08:35 Cloudy with Light Rain 36 2 36 2 100 100 N N/A 30.09 1019 1 1 N/A
8:45 am 08:45 Cloudy with Light Rain 36 2 36 2 100 100 N N/A 30.09 1019 1 1 N/A
9:34 am 09:34 Cloudy with Light Rain 37 3 37 3 100 100 N N/A 30.09 1019 1 2 N/A
9:45 am 09:45 Cloudy with Light Rain 37 3 37 3 100 100 N N/A 30.09 1019 1 2 N/A
10:48 am 10:48 Cloudy with Light Rain 39 4 39 4 100 100 N 5 7 30.06 1018 1 2 N/A
11:20 am 11:20 Cloudy with Light Rain 41 5 39 4 93 93 NNE 5 7 30.06 1018 1 2 N/A
11:49 am 11:49 Cloudy with Light Rain N/A N/A N/A NNE 5 7 N/A 1 1 N/A
12:50 pm 12:50 Cloudy with Light Rain 43 6 41 5 93 93 NE 3 6 30.03 1017 1 1 N/A
1:29 pm 13:29 Cloudy with Light Rain 45 7 43 6 93 93 ENE 6 9 30.00 1016 2 2 N/A
1:50 pm 13:50 Cloudy with Light Rain 45 7 45 7 100 100 ENE 6 9 29.97 1015 2 2 N/A
2:11 pm 14:11 Cloudy with Light Rain 45 7 45 7 100 100 ENE 5 7 29.97 1015 2 3 N/A
2:45 pm 14:45 Cloudy with Light Rain 46 8 45 7 93 93 ENE 6 9 29.94 1014 N/A N/A
3:19 pm 15:19 Cloudy with Light Rain 46 8 45 7 93 93 E 6 9 29.94 1014 N/A N/A
3:47 pm 15:47 Cloudy with Light Rain 46 8 45 7 93 93 NE 3 6 29.94 1014 N/A N/A
4:58 pm 16:58 Cloudy with Light Rain 46 8 45 7 93 93 N 3 6 29.94 1014 N/A N/A
5:52 pm 17:52 Cloudy with Light Rain 45 7 43 6 93 93 N 5 7 29.94 1014 N/A N/A
6:15 pm 18:15 Cloudy with Light Rain 45 7 43 6 93 93 N 5 7 29.94 1014 N/A N/A
6:50 pm 18:50 Cloudy with Light Rain 45 7 43 6 93 93 N 6 9 29.97 1015 N/A N/A
7:14 pm 19:14 Cloudy with Light Rain 45 7 41 5 87 87 N 3 6 29.97 1015 N/A N/A
7:47 pm 19:47 Cloudy with Fog 41 5 41 5 100 100 NW 5 7 30.03 1017 N/A N/A
8:58 pm 20:58 Cloudy with Fog 41 5 39 4 93 93 NW 6 9 30.06 1018 N/A N/A
9:45 pm 21:45 Cloudy with Fog 41 5 39 4 93 93 NW 6 9 30.09 1019 N/A N/A

Powered by AerisWeather